EW3230 Weather Reports


time (UTC)temp
C
wind
direction
speed
KPH
gust
KPH
rain 1hr
cm
rain 24hr
cm
rain mn
cm
humidity
%
barometer
mb
20260508173635 17 189 3.2 9.7 0.00 0.00 0.00 44 1008.8
20260508172635 17 134 3.2 8.0 0.00 0.00 0.00 42 1009.0
20260508172135 18 237 3.2 14.5 0.00 0.00 0.00 40 1009.1
20260508170633 18 155 3.2 11.3 0.00 0.00 0.00 35 1009.1
20260508170139 17 255 1.6 9.7 0.00 0.00 0.00 36 1009.1
20260508165135 17 287 1.6 11.3 0.00 0.00 0.00 36 1009.4
20260508163634 17 347 1.6 9.7 0.00 0.00 0.00 34 1009.5
20260508162633 17 221 3.2 12.9 0.00 0.00 0.00 36 1009.5
20260508161629 17 239 0.0 6.4 0.00 0.00 0.00 35 1009.6
20260508160629 16 69 1.6 6.4 0.00 0.00 0.00 35 1009.7
20260508155628 16 115 3.2 12.9 0.00 0.00 0.00 35 1009.9
20260508154628 16 272 3.2 12.9 0.00 0.00 0.00 36 1009.8
20260508153630 16 302 1.6 12.9 0.00 0.00 0.00 36 1009.9
20260508152641 16 236 1.6 6.4 0.00 0.00 0.00 35 1010.0
20260508151629 15 314 1.6 11.3 0.00 0.00 0.00 38 1010.1
20260508150629 15 263 1.6 9.7 0.00 0.00 0.00 37 1010.2
20260508150131 15 250 1.6 11.3 0.00 0.00 0.00 35 1010.4
20260508144622 15 351 1.6 9.7 0.00 0.00 0.00 37 1010.4
20260508144124 15 253 1.6 11.3 0.00 0.00 0.00 38 1010.4
20260508142624 15 287 1.6 16.1 0.00 0.00 0.00 36 1010.5
20260508141622 15 232 1.6 8.0 0.00 0.00 0.00 37 1010.5
20260508140622 15 280 3.2 9.7 0.00 0.00 0.00 39 1010.5
20260508140122 15 304 1.6 6.4 0.00 0.00 0.00 38 1010.6
20260508134622 14 287 1.6 11.3 0.00 0.00 0.00 44 1010.6
20260508133621 14 101 0.0 4.8 0.00 0.00 0.00 41 1010.6
20260508132622 13 41 0.0 6.4 0.00 0.00 0.00 45 1010.6
20260508131616 13 300 0.0 6.4 0.00 0.00 0.00 46 1010.7
20260508131117 13 283 0.0 6.4 0.00 0.00 0.00 47 1010.7
20260508130117 13 129 1.6 4.8 0.00 0.00 0.00 46 1010.7
20260508124616 13 229 1.6 8.0 0.00 0.00 0.00 48 1010.7
20260508123617 12 330 1.6 8.0 0.00 0.00 0.00 50 1010.6
20260508122618 12 285 0.0 3.2 0.00 0.03 0.00 54 1010.7
20260508121617 11 257 0.0 4.8 0.00 0.03 0.00 60 1010.8
20260508121118 10 266 0.0 3.2 0.00 0.05 0.00 61 1010.8
20260508115615 9 267 0.0 3.2 0.00 0.08 0.00 62 1010.9
20260508114613 9 235 0.0 3.2 0.00 0.08 0.00 64 1011.0
20260508113610 9 249 0.0 1.6 0.00 0.08 0.00 65 1010.9
20260508112613 9 229 0.0 1.6 0.00 0.10 0.00 66 1010.7
20260508111611 8 252 0.0 3.2 0.00 0.13 0.00 65 1010.7
20260508110611 8 280 0.0 1.6 0.00 0.13 0.00 68 1010.6
20260508105611 8 280 0.0 1.6 0.00 0.13 0.00 70 1010.6
20260508104611 7 279 0.0 1.6 0.00 0.15 0.00 73 1010.6
20260508103611 6 281 0.0 0.0 0.00 0.18 0.00 75 1010.4
20260508103111 6 281 0.0 0.0 0.00 0.18 0.00 76 1010.2
20260508102106 6 281 0.0 0.0 0.00 0.20 0.00 78 1010.1
20260508100604 5 281 0.0 0.0 0.00 0.23 0.00 80 1010.1
20260508095604 5 281 0.0 0.0 0.00 0.25 0.00 80 1010.0
20260508094604 4 281 0.0 0.0 0.00 0.25 0.00 79 1009.9
20260508093617 4 281 0.0 0.0 0.00 0.28 0.00 81 1009.8
20260508092606 4 281 0.0 0.0 0.00 0.30 0.00 79 1009.8
20260508091604 4 281 0.0 1.6 0.00 0.36 0.00 80 1009.8
20260508090607 4 281 0.0 0.0 0.00 0.38 0.00 80 1009.7
20260508085604 4 281 0.0 0.0 0.00 0.41 0.00 79 1009.6
20260508084558 4 281 0.0 0.0 0.00 0.46 0.00 79 1009.3
20260508083558 5 281 0.0 0.0 0.00 0.48 0.00 77 1009.2
20260508082606 5 281 0.0 0.0 0.00 0.76 0.00 74 1008.9
20260508082559 5 281 0.0 0.0 0.00 0.58 0.00 76 1009.1
20260508081714 5 281 0.0 0.0 0.00 1.04 0.00 73 1008.8
20260508075558 5 281 0.0 0.0 0.00 1.07 0.00 72 1008.7
20260508074600 6 281 0.0 0.0 0.00 1.07 0.00 70 1008.5
20260508073558 6 281 0.0 0.0 0.00 1.07 0.00 70 1008.3
20260508072558 6 281 0.0 0.0 0.00 1.07 0.00 70 1008.3
20260508071554 7 281 0.0 0.0 0.00 1.07 0.00 65 1008.0
20260508070552 7 281 0.0 0.0 0.00 1.07 0.00 64 1008.1
20260508065552 8 281 0.0 0.0 0.00 1.07 0.00 62 1008.2
20260508065055 8 281 0.0 0.0 0.00 1.07 0.00 60 1008.2
20260508063552 8 281 0.0 1.6 0.00 1.07 0.00 59 1008.1
20260508062554 8 281 0.0 0.0 0.00 1.07 0.00 61 1008.1
20260508061552 8 281 0.0 0.0 0.00 1.07 0.00 63 1007.9
20260508060551 8 281 0.0 0.0 0.00 1.07 0.00 63 1007.9
20260508060054 9 281 0.0 0.0 0.00 1.07 0.00 58 1007.9
20260508054546 9 281 0.0 0.0 0.00 1.07 0.00 55 1008.0
20260508053546 10 281 0.0 1.6 0.00 1.07 0.00 53 1008.0
20260508052547 10 264 0.0 0.0 0.00 1.07 0.00 53 1007.9
20260508052047 10 262 0.0 1.6 0.00 1.07 0.00 52 1007.9
20260508051046 11 262 0.0 1.6 0.00 1.07 0.00 51 1007.9
20260508045547 11 245 0.0 8.0 0.00 1.07 0.00 50 1007.9
20260508044547 11 316 0.0 11.3 0.00 1.07 0.00 50 1007.9
20260508043547 11 295 0.0 3.2 0.00 1.07 0.00 50 1007.9
20260508042546 11 257 0.0 3.2 0.00 1.07 0.00 51 1007.9
20260508041540 11 346 0.0 1.6 0.00 1.07 0.00 50 1007.9
20260508040540 11 260 0.0 3.2 0.00 1.07 0.00 50 1007.9
20260508035539 11 280 0.0 3.2 0.00 1.07 1.07 49 1008.0
20260508034541 11 287 0.0 6.4 0.00 1.07 1.07 49 1007.9
20260508033538 11 278 0.0 4.8 0.00 1.07 1.07 50 1008.0
20260508033040 11 283 0.0 3.2 0.00 1.07 1.07 50 1008.0
20260508031538 11 332 0.0 3.2 0.00 1.07 1.07 52 1008.0
20260508031040 10 258 0.0 3.2 0.00 1.07 1.07 54 1008.1
20260508025539 11 257 0.0 3.2 0.00 1.07 1.07 53 1008.2
20260508024535 11 274 0.0 1.6 0.00 1.07 1.07 52 1008.2
20260508023532 11 246 0.0 1.6 0.00 1.07 1.07 51 1008.0
20260508023034 11 258 0.0 1.6 0.00 1.07 1.07 51 1008.1
20260508021537 11 221 0.0 4.8 0.00 1.07 1.07 50 1008.2
20260508021034 11 274 0.0 6.4 0.00 1.07 1.07 50 1008.1
20260508020648 12 302 0.0 1.6 0.00 1.07 1.07 50 1008.0
20260508014534 12 235 0.0 1.6 0.00 1.07 1.07 50 1008.1
20260508013538 12 283 0.0 6.4 0.00 1.07 1.07 49 1007.8
20260508013033 12 284 0.0 3.2 0.00 1.07 1.07 49 1007.7
20260508011533 12 266 0.0 1.6 0.00 1.09 1.07 48 1007.6
20260508011527 12 246 0.0 1.6 0.00 1.07 1.07 48 1007.8
20260508005528 13 64 0.0 6.4 0.00 1.09 1.07 46 1007.5
20260508004532 13 269 0.0 9.7 0.00 1.09 1.07 43 1007.3
20260508004526 13 266 0.0 1.6 0.00 1.09 1.07 45 1007.4
20260508003028 13 286 0.0 4.8 0.00 1.09 1.07 42 1006.6
20260508001526 14 40 0.0 9.7 0.00 1.09 1.07 42 1006.5
20260508001028 14 289 0.0 6.4 0.00 1.12 1.07 42 1006.5
20260507235526 15 300 0.0 3.2 0.00 1.14 1.07 40 1006.3
20260507235025 15 293 1.6 11.3 0.00 1.17 1.07 40 1006.3
20260507233525 15 294 1.6 11.3 0.00 1.19 1.07 38 1006.3
20260507232525 16 287 1.6 8.0 0.00 1.22 1.07 37 1006.2
20260507231525 16 284 1.6 9.7 0.00 1.22 1.07 37 1005.9
20260507230522 16 276 1.6 6.4 0.00 1.24 1.07 37 1005.8
20260507225522 17 209 0.0 3.2 0.00 1.27 1.07 37 1005.6
20260507224528 17 277 1.6 9.7 0.00 1.30 1.07 35 1005.5
20260507224522 17 52 1.6 6.4 0.00 1.30 1.07 35 1005.6
20260507222523 17 331 1.6 9.7 0.00 1.32 1.07 34 1005.4
20260507222024 18 255 3.2 12.9 0.00 1.32 1.07 35 1005.3
20260507220523 18 91 1.6 11.3 0.00 1.32 1.07 34 1005.3
20260507215522 19 295 1.6 8.0 0.00 1.32 1.07 33 1005.2
20260507214523 19 86 3.2 12.9 0.00 1.32 1.07 36 1005.1
20260507214024 19 288 1.6 11.3 0.00 1.32 1.07 34 1005.1
20260507212522 20 355 1.6 9.7 0.00 1.32 1.07 32 1005.0
20260507211525 20 261 1.6 8.0 0.00 1.32 1.07 32 1004.9
20260507210523 19 148 1.6 11.3 0.00 1.32 1.07 32 1004.9
20260507205517 20 338 1.6 12.9 0.00 1.32 1.07 32 1004.8
20260507204518 20 284 3.2 12.9 0.00 1.32 1.07 34 1004.8
20260507203516 20 238 1.6 6.4 0.00 1.32 1.07 36 1004.8
20260507203018 20 148 0.0 6.4 0.00 1.32 1.07 34 1004.7
20260507202017 19 276 1.6 11.3 0.00 1.32 1.07 35 1004.8